User: anonymous   Login
Location: Unspecified
(0.0000°N, 0.0000°E)
Time: 05:53:35
(UTC+00:00)
Language:

ISIS 1 - Orbit

View from above orbital plane
View from above orbital plane
View from above satellite
View from above satellite

Ground track
Ground track

The orbit data is extracted from the following two-line orbital elements,

1  3669U 69009A   18343.88587630 +.00000038 +00000-0 +16432-4 0  9993
2  3669 088.4239 088.2659 1712758 026.5396 341.3872 11.29460784049665
Epoch (UTC): 09 December 2018 21:15:39
Eccentricity: 0.1712758
inclination: 88.4239°
perigee height: 576 km
apogee height: 3450 km
right ascension of ascending node: 88.2659°
argument of perigee: 26.5396°
revolutions per day: 11.29460784
mean anomaly at epoch: 341.3872°
orbit number at epoch: 4966

The dashed part of the orbit path shows where the satellite is in the earth's shadow,  

DLR